Location: ????
(30.1475°N, 31.1342°E)
Time: 17:39:10
(UTC+00:00)

Meteor 1-14 Rocket - Pass Details

Date: 05 April 2023
Orbit: 834 x 918 km, 81.3° (Epoch: 03 June)

Event Time Altitude Azimuth Distance (km) Brightness Sun altitude
Rises 23:49:24 0° 11° (N) 3,403 8.0 -44.9°
Reaches altitude 10° 23:52:26 10° 27° (NNE) 2,475 7.2 -44.4°
Enters shadow 23:54:02 16° 42° (NE) 2,102 6.8 -44.2°
